This demonstration page uses our WeatherBlox Daily Observations layout. Learn more.

Left ArrowRight Arrow

Hourly Observations for January 20, 2017

Temp ( °F °C ) Dew Point ( °F °C ) Humidity (%) Winds ( mph kmh ) Pressure ( in mb ) Visibility ( mi km ) Precip ( " mm )
12:53 am 00:53 Mostly Cloudy with Fog 38 3.3 37 2.8 97 97 Calm 29.60 1003 0 0 0.00 0.00
1:53 am 01:53 Cloudy with Fog 38 3.3 37 2.8 97 97 Calm 29.58 1002 1 1 0.00 0.00
2:53 am 02:53 Mostly Cloudy with Fog 38 3.3 38 3.3 100 100 ENE 3 6 29.56 1001 0 0 0.00 0.00
3:53 am 03:53 Mostly Cloudy with Fog 36 2.2 35 1.7 97 97 Calm 29.53 1000 0 0 0.00 0.00
4:53 am 04:53 Mostly Cloudy with Fog 37 2.8 36 2.2 96 96 S 3 6 29.54 1000 0 0 0.00 0.00
5:53 am 05:53 Cloudy with Mist and Fog 37 2.8 36 2.2 96 96 S 6 9 29.55 1001 1 1 0.00 0.00
6:53 am 06:53 Mostly Cloudy with Mist and Fog 37 2.8 36 2.2 96 96 S 3 6 29.55 1001 1 1 0.00 0.00
7:53 am 07:53 Mostly Cloudy with Fog 38 3.3 37 2.8 97 97 S 5 7 29.54 1000 0 0 0.00 0.00
8:53 am 08:53 Mostly Cloudy with Fog 38 3.3 38 3.3 100 100 SSE 5 7 29.53 1000 0 0 0.00 0.00
9:23 am 09:23 Cloudy with Fog 38 3.3 38 3.3 100 100 SE 5 7 29.56 1001 1 1 0.00 0.00
9:46 am 09:46 Cloudy with Mist and Fog 39 4 37 3 93 93 SE 5 7 29.56 1001 2 3 0.00 0.00
9:53 am 09:53 Cloudy with Mist and Fog 39 3.9 38 3.3 96 96 SE 7 11 29.52 1000 3 5 0.00 0.00
10:01 am 10:01 Cloudy with Mist and Fog 39 3.9 38 3.3 96 96 SSE 7 11 29.56 1001 2 3 0.00 0.00
10:08 am 10:08 Cloudy with Mist and Fog 39 3.9 38 3.3 96 96 SSE 7 11 29.56 1001 2 3 0.00 0.00
10:21 am 10:21 Cloudy with Fog 38 3.3 38 3.3 100 100 SSE 6 9 29.56 1001 1 1 0.00 0.00
10:53 am 10:53 Cloudy with Fog 39 3.9 38 3.3 96 96 S 6 9 29.52 1000 1 1 0.00 0.00
11:43 am 11:43 Cloudy with Mist and Fog 40 4.4 39 3.9 97 97 S 5 7 29.53 1000 2 3 0.00 0.00
11:51 am 11:51 Cloudy with Mist and Fog 39 4 39 4 100 100 S 5 7 29.53 1000 5 8 0.00 0.00
11:53 am 11:53 Cloudy with Mist and Fog 40 4.4 39 3.9 97 97 S 6 9 29.49 999 5 8 0.00 0.00
12:53 pm 12:53 Cloudy with Mist and Fog 40 4.4 40 4.4 100 100 SSE 6 9 29.46 998 6 10 0.00 0.00
1:18 pm 13:18 Cloudy with Mist and Fog 41 5 39 4 93 93 SE 6 9 29.44 997 2 3 0.00 0.00
1:35 pm 13:35 Cloudy with Mist and Fog 41 5 39 4 93 93 SSE 6 9 29.44 997 2 2 0.00 0.00
1:53 pm 13:53 Cloudy with Mist and Fog 41 5 40 4.4 96 96 SE 3 6 29.42 996 3 4 0.00 0.00
2:01 pm 14:01 Cloudy with Mist and Fog 41 5 39 3.9 93 93 SE 3 6 29.44 997 5 8 0.00 0.00
2:10 pm 14:10 Cloudy with Light Rain 41 5 40 4.4 96 96 Calm 29.44 997 3 4 0.00 0.03
2:20 pm 14:20 Cloudy with Light Rain 41 5 39 4 93 93 ESE 3 6 29.44 997 2 2 0.00 0.00
2:37 pm 14:37 Cloudy with Light Rain 41 5 40 4.4 96 96 SE 5 7 29.41 996 1 1 0.00 0.03
2:49 pm 14:49 Cloudy with Mist and Fog 41 5 39 4 93 93 SSE 5 7 29.44 997 1 2 0.01 0.25
2:53 pm 14:53 Cloudy with Mist and Fog 41 5 40 4.4 96 96 SSE 6 9 29.42 996 1 2 0.01 0.25
3:06 pm 15:06 Cloudy with Mist and Fog 39 4 39 4 100 100 SSE 6 9 29.47 998 1 1 0.00 0.00
3:53 pm 15:53 Mostly Cloudy with Fog 40 4.4 40 4.4 100 100 SSE 6 9 29.43 997 0 0 0.00 0.00
4:53 pm 16:53 Mostly Cloudy with Fog 41 5 40 4.4 96 96 SE 5 7 29.41 996 5 8 0.00 0.00
5:51 pm 17:51 Cloudy with Mist and Fog 41 5 39 4 93 93 S 3 6 29.41 996 2 3 0.00 0.00
5:53 pm 17:53 Cloudy with Mist and Fog 41 5 39 4 93 93 S 5 7 29.41 996 3 4 0.00 0.00
6:10 pm 18:10 Cloudy with Mist and Fog 40 4.4 40 4.4 100 100 S 5 7 29.47 998 1 2 0.00 0.00
6:40 pm 18:40 Mostly Cloudy with Fog 39 4 39 4 100 100 S 5 7 29.47 998 1 1 0.00 0.00
6:53 pm 18:53 Mostly Cloudy with Fog 39 3.9 39 3.9 100 100 SSE 3 6 29.44 997 1 1 0.00 0.00
7:53 pm 19:53 Mostly Cloudy with Fog 39 3.9 39 3.9 100 100 S 3 6 29.44 997 0 0 0.00 0.00
8:53 pm 20:53 Cloudy with Fog 39 3.9 38 3.3 96 96 S 3 6 29.43 997 0 0 0.00 0.00
9:04 pm 21:04 Cloudy with Fog 39 4 37 3 93 93 Calm 29.47 998 0 0 0.00 0.00
9:21 pm 21:21 Cloudy with Fog 39 3.9 38 3.3 96 96 S 3 6 29.47 998 1 1 0.00 0.00
9:33 pm 21:33 Cloudy with Fog 38 3.3 38 3.3 100 100 S 3 6 29.47 998 1 1 0.00 0.00
9:48 pm 21:48 Cloudy with Mist and Fog 37 3 37 3 100 100 Calm 29.47 998 1 2 0.00 0.00
9:53 pm 21:53 Cloudy with Mist and Fog 38 3.3 37 2.8 97 97 Calm 29.43 997 1 2 0.00 0.00
10:01 pm 22:01 Cloudy with Mist and Fog 38 3.3 37 2.8 97 97 Calm 29.47 998 3 5 0.00 0.00
10:30 pm 22:30 Cloudy with Mist and Fog 37 2.8 36 2.2 96 96 SW 3 6 29.47 998 3 4 0.00 0.00
10:40 pm 22:40 Cloudy with Mist and Fog 37 3 36 2 93 93 SW 3 6 29.47 998 2 3 0.00 0.00
10:45 pm 22:45 Cloudy with Mist and Fog 37 2.8 36 2.2 96 96 WSW 5 7 29.47 998 2 3 0.00 0.00
10:53 pm 22:53 Cloudy with Mist and Fog 37 2.8 36 2.2 96 96 WSW 5 7 29.43 997 6 10 0.00 0.00
11:02 pm 23:02 Cloudy with Mist and Fog 37 2.8 36 2.2 96 96 WSW 6 9 29.47 998 2 3 0.00 0.00
11:17 pm 23:17 Cloudy with Mist and Fog 37 2.8 36 2.2 96 96 WSW 5 7 29.47 998 2 3 0.00 0.00
11:20 pm 23:20 Cloudy with Mist and Fog 37 3 36 2 93 93 WSW 6 9 29.47 998 3 5 0.00 0.00
11:53 pm 23:53 Cloudy 37 2.8 35 1.7 93 93 W 6 9 29.42 996 9 14 0.00 0.00

Powered by AerisWeather